Location: *
(46.4833°N, 7.6667°E)
Time: 18:56:15
(UTC+00:00)

Cosmos 2026 Rocket - Pass Details

Date: 27 February 2020
Orbit: 938 x 1002 km, 82.9° (Epoch: 05 April)

Event Time Altitude Azimuth Distance (km) Brightness Sun altitude
Rises 19:48:12 0° 349° (N) 3,667 7.4 -27.5°
Reaches altitude 10° 19:50:44 10° 348° (NNW) 2,707 6.6 -27.9°
Maximum altitude 19:56:54 75° 265° (W) 986 4.0 -28.9°
Enters shadow 19:58:23 53° 196° (SSW) 1,155 4.2 -29.1°
